Location: Corte Bragagnani
(45.3000°N, 11.1000°E)
Time: 10:40:17
(UTC+00:00)

Mayak - Pass Details

Date: 09 April 2020
Orbit: 581 x 601 km, 97.5° (Epoch: 25 May)

Event Time Altitude Azimuth Distance (km) Brightness Sun altitude
Rises 22:01:15 0° 6° (N) 2,820 ? -34.0°
Reaches altitude 10° 22:03:29 10° 1° (N) 1,913 ? -34.2°
Enters shadow 22:04:43 19° 354° (N) 1,437 ? -34.3°
